{"data":{"norad_id":67992,"intl_designator":"2026-039G","name":"STARLINK-36950","alt_names":[],"object_type":"PAYLOAD","status":"ACTIVE","operator":null,"country":"US","launch_date":"2026-02-27","launch_site_code":"AFETR","launch_vehicle":null,"mission":null,"orbit_class":"UNKNOWN","rcs_meters":null,"size_class":null,"mass_kg":null,"dimensions":null,"purposes":["comms"],"wikipedia_slug":null,"has_3d_model":false,"image_url":null,"decayed_at":null,"tle_current":{"epoch":"2026-09-19T16:47:57.133248Z","epoch_age_seconds":128636,"freshness":"FRESH","line1":"1 67992U 26039G   26262.69996682  .00014417  00000+0  53191-3 0  9994","line2":"2 67992  43.0043  33.3784 0001950 283.3149  76.7485 15.27610047 31376","mean_motion":15.27610047,"eccentricity":0.000195,"inclination_deg":43.0043,"raan_deg":33.3784,"arg_perigee_deg":283.3149,"mean_anomaly_deg":76.7485,"bstar":0.00053191,"rev_number":3137,"period_min":94.264894553944,"perigee_km":481.62121224247,"apogee_km":484.2970397316,"semimajor_km":6861.096125987,"source":"CELESTRAK","updated_at":"2026-09-20T09:00:43.735800Z"}}}